Regional Weather Roundup
Issued by NWS Northern Indiana

Home | Current Version | Previous Version | Graphics & Text | Print | Product List | Glossary On
Versions: 1 2 3 4 5 6 7 8 9 10 11 12 13 14 15 16 17 18 19 20 21 22 23 24 25 26 27 28 29 30 31 32 33 34 35 36 37 38 39 40 41 42 43 44 45 46 47 48 49 50
000
ASUS43 KIWX 311810
RWRIWX

KIWX WEATHER ROUNDUP
NATIONAL WEATHER SERVICE NORTHERN INDIANA
200 PM EDT MON AUG 31 2015

NOTE: "FAIR" INDICATES FEW OR NO CLOUDS BELOW 12,000 FEET WITH NO
SIGNIFICANT WEATHER AND/OR OBSTRUCTIONS TO VISIBILITY.

* THESE STATIONS ARE NOT UNDER NWS QUALITY CONTROL. THEY ALSO MAY NOT
  REPORT WEATHER SUCH AS PRECIPITATION OR FOG.

INZ001>027-311900-
NORTHERN INDIANA

CITY           SKY/WX    TMP DP  RH WIND       PRES   REMARKS
GARY*          MOSUNNY   82  66  57 CALM      30.08F
VALPARAISO     MOSUNNY   82  69  64 VRB5      30.09F
6HR MIN TEMP:  66; 6HR MAX TEMP:  83;

MICHIGAN CITY* MOSUNNY   79  68  69 N5        30.09F
LAPORTE*       SUNNY     82  72  71 W3        30.10F
KNOX*          MOSUNNY   81  68  65 S3        30.08F
SOUTH BEND     MOSUNNY   81  69  67 VRB5      30.09F
6HR MIN TEMP:  63; 6HR MAX TEMP:  81;

ELKHART*       SUNNY     82  68  61 SW6       30.09F
GOSHEN         MOSUNNY   82  69  64 W7        30.09F
6HR MIN TEMP:  64; 6HR MAX TEMP:  83; 6HR PCP: TRACE;

MONTICELLO*    PTSUNNY   82  72  70 SW7       30.08F
6HR MIN TEMP:  67; 6HR MAX TEMP:  84;

LOGANSPORT*    MOSUNNY   82  63  51 SW6       30.10F
ROCHESTER*     MOSUNNY   88  68  51 SW6       30.10S
WARSAW*        MOSUNNY   81  70  69 CALM      30.09F
ANGOLA*        SUNNY     84  72  65 SW5       30.09F
FORT WAYNE     MOSUNNY   85  70  60 SW6       30.10F
6HR MIN TEMP:  65; 6HR MAX TEMP:  85;

HUNTINGTON*    SUNNY     84  63  48 NW5       30.09F
6HR MIN TEMP:  66; 6HR MAX TEMP:  84;

PERU/GRISSOM   MOSUNNY   85  71  63 SW5       30.08F
6HR MIN TEMP:  67; 6HR MAX TEMP:  85;

MARION*        MOSUNNY   84  57  38 SW7       30.11F
6HR MIN TEMP:  49; 6HR MAX TEMP:  89;


$$
INZ028>050-311900-
CENTRAL INDIANA

CITY           SKY/WX    TMP DP  RH WIND       PRES   REMARKS
LAFAYETTE      PTSUNNY   85  68  56 S8        30.08F
6HR MIN TEMP:  65; 6HR MAX TEMP:  86;

KOKOMO*        CLOUDY    84  70  61 SW7       30.09F
6HR MIN TEMP:  66; 6HR MAX TEMP:  86;

MUNCIE*        MOSUNNY   82  67  60 VRB3      30.11F
6HR MIN TEMP:  70; 6HR MAX TEMP:  83;

INDIANAPOLIS   MOSUNNY   83  65  54 SW8       30.11F
6HR MIN TEMP:  68; 6HR MAX TEMP:  85;


$$
MIZ043>046-050>051-056>058-064>065-071>073-077>080-311900-
SOUTHWEST LOWER MICHIGAN

CITY           SKY/WX    TMP DP  RH WIND       PRES   REMARKS
BATTLE CREEK   MOSUNNY   80  67  64 SW8       30.10F
6HR MIN TEMP:  64; 6HR MAX TEMP:  80;

BENTON HARBOR  SUNNY     77  69  76 W8        30.08F
6HR MIN TEMP:  58; 6HR MAX TEMP:  78;

COLDWATER*     PTSUNNY   83  69  62 W7        30.09F
6HR MIN TEMP:  62; 6HR MAX TEMP:  83;

HILLSDALE*     MOSUNNY   83  68  61 W7        30.10F
6HR MIN TEMP:  63; 6HR MAX TEMP:  83;

HOLLAND        MOSUNNY   79  67  66 SW7       30.08F
6HR MIN TEMP:  61; 6HR MAX TEMP:  80;

GRAND RAPIDS   MOSUNNY   78  66  66 W7        30.09F
6HR MIN TEMP:  61; 6HR MAX TEMP:  78;

KALAMAZOO      PTSUNNY   80  67  64 SW6       30.09F
6HR MIN TEMP:  59; 6HR MAX TEMP:  80;

STURGIS*       MOSUNNY   81  70  69 W6        30.09F
THREE RIVERS*  FAIR      81  69  67 SW3       30.09F
6HR MIN TEMP:  62; 6HR MAX TEMP:  81;


$$
OHZ001>008-015>018-024>025-311900-
NORTHWEST OHIO

CITY           SKY/WX    TMP DP  RH WIND       PRES   REMARKS
WAUSEON*       FAIR      84  72  65 SW8       30.09F
DEFIANCE       PTSUNNY   84  70  62 VRB5      30.09F
6HR MIN TEMP:  66; 6HR MAX TEMP:  85;

FINDLAY        SUNNY     85  69  58 SW7       30.09F
6HR MIN TEMP:  66; 6HR MAX TEMP:  85;

TOLEDO EXPRESS MOSUNNY   82  69  64 W7        30.08F
6HR MIN TEMP:  64; 6HR MAX TEMP:  83;

TOLEDO METCALF MOSUNNY   84  68  58 VRB7      30.09F
6HR MIN TEMP:  67; 6HR MAX TEMP:  84;

LIMA           SUNNY     82  67  60 W6        30.11F
6HR MIN TEMP:  67; 6HR MAX TEMP:  83;


$$
AND FOR LAKE MICHIGAN COASTAL AND OPEN LAKE BUOY OBSERVATIONS

STATION/POSITION TEMP    WIND        PRES    VSBY  WAVE
                 AIR SEA DIR/SP/G                  HT/PER
                 (F)     (DEG/KT/KT) (MB)    (MI)  (FT/S)
CALUMET HARBOR    73      50/  7/  9   N/A
MICHIGAN CITY     77     340/  4/  4   N/A
BURNS HARBOR      77      40/  4/  5 1019.3F
SAINT JOSEPH      78     210/  3/  4 1019.0F
SOUTH LAKE BUOY   69 71  180/  4/  6 1018.1F         0
4 MI NW BRIDGMAN  71 74  350/  2/  4   N/A           0
MICHIGAN CITY     73 73   20/  4/  4   N/A           0

$$
&&


USA.gov is the U.S. government's official web portal to all federal, state and local government web resources and services.